TimeEDT,TemperatureF,Dew PointF,Humidity,Sea Level PressureIn,VisibilityMPH,Wind Direction,Wind SpeedMPH,Gust SpeedMPH,PrecipitationIn,Events,Conditions,WindDirDegrees,DateUTC
12:16 AM,53.6,51.8,94,29.97,6.0,East,4.6,-,0.03,Rain,Light Rain,90,2013-05-28 04:16:00
12:28 AM,53.6,51.8,94,29.97,7.0,East,4.6,-,0.03,Rain,Light Rain,100,2013-05-28 04:28:00
12:52 AM,54.0,53.1,97,29.97,4.0,East,3.5,-,0.05,Rain,Rain,90,2013-05-28 04:52:00
1:13 AM,53.6,53.6,100,29.95,4.0,East,3.5,-,0.04,Rain,Rain,90,2013-05-28 05:13:00
1:35 AM,55.4,53.6,94,29.94,4.0,ESE,3.5,-,0.06,Rain,Light Rain,110,2013-05-28 05:35:00
1:52 AM,55.0,53.1,93,29.94,5.0,ESE,3.5,-,0.06,Rain,Light Rain,110,2013-05-28 05:52:00
2:33 AM,55.4,55.4,100,29.93,6.0,Calm,Calm,-,0.00,,Overcast,0,2013-05-28 06:33:00
2:52 AM,57.0,55.0,93,29.94,9.0,Calm,Calm,-,0.00,,Overcast,0,2013-05-28 06:52:00
3:52 AM,55.9,54.0,93,29.93,6.0,Calm,Calm,-,N/A,,Mostly Cloudy,0,2013-05-28 07:52:00
4:22 AM,55.4,53.6,94,29.92,1.8,Calm,Calm,-,N/A,,Scattered Clouds,0,2013-05-28 08:22:00
4:27 AM,53.6,53.6,100,29.92,0.8,Calm,Calm,-,N/A,,Partly Cloudy,0,2013-05-28 08:27:00
4:46 AM,53.6,53.6,100,29.92,0.2,Calm,Calm,-,N/A,Fog,Fog,0,2013-05-28 08:46:00
4:52 AM,54.0,53.1,97,29.93,0.5,North,3.5,-,N/A,Fog,Fog,10,2013-05-28 08:52:00
4:59 AM,53.6,53.6,100,29.93,1.8,Calm,Calm,-,N/A,,Overcast,0,2013-05-28 08:59:00
5:06 AM,53.6,53.6,100,29.93,2.0,Calm,Calm,-,N/A,,Overcast,0,2013-05-28 09:06:00
5:28 AM,55.4,53.6,94,29.94,3.0,Calm,Calm,-,N/A,,Overcast,0,2013-05-28 09:28:00
5:52 AM,55.0,54.0,96,29.94,4.0,Calm,Calm,-,N/A,,Overcast,0,2013-05-28 09:52:00
6:17 AM,53.6,53.6,100,29.94,2.0,Calm,Calm,-,N/A,,Mostly Cloudy,0,2013-05-28 10:17:00
6:41 AM,55.4,53.6,94,29.94,3.0,Calm,Calm,-,0.00,Rain,Light Rain,0,2013-05-28 10:41:00
6:49 AM,55.4,53.6,94,29.94,2.0,Calm,Calm,-,0.01,Rain,Light Rain,0,2013-05-28 10:49:00
6:52 AM,55.0,54.0,96,29.95,2.0,Calm,Calm,-,0.01,Rain,Light Rain,0,2013-05-28 10:52:00
7:22 AM,60.8,59.0,94,29.93,4.0,SW,16.1,27.6,0.05,Rain,Light Rain,220,2013-05-28 11:22:00
7:52 AM,63.0,61.0,93,29.94,10.0,SW,8.1,-,0.08,Rain,Light Rain,230,2013-05-28 11:52:00
8:49 AM,62.6,60.8,94,29.96,6.0,NNE,4.6,-,N/A,,Mostly Cloudy,30,2013-05-28 12:49:00
8:52 AM,62.1,59.0,90,29.96,5.0,NE,4.6,-,N/A,,Overcast,50,2013-05-28 12:52:00
9:52 AM,68.0,63.0,84,29.95,10.0,South,4.6,-,0.00,Rain,Light Rain,180,2013-05-28 13:52:00
10:52 AM,72.0,63.0,73,29.93,10.0,SSW,10.4,18.4,0.00,,Partly Cloudy,200,2013-05-28 14:52:00
11:52 AM,75.0,64.0,69,29.91,10.0,SW,9.2,18.4,N/A,,Clear,220,2013-05-28 15:52:00
12:52 PM,78.1,64.9,64,29.89,10.0,SW,17.3,27.6,N/A,,Mostly Cloudy,230,2013-05-28 16:52:00
1:10 PM,73.4,64.4,73,29.90,10.0,SW,12.7,23.0,N/A,,Mostly Cloudy,220,2013-05-28 17:10:00
1:52 PM,79.0,64.9,62,29.87,10.0,SW,11.5,26.5,N/A,,Overcast,220,2013-05-28 17:52:00
2:52 PM,78.1,64.0,62,29.87,10.0,SW,15.0,25.3,N/A,,Scattered Clouds,220,2013-05-28 18:52:00
3:52 PM,75.0,66.0,73,29.88,10.0,SW,13.8,20.7,0.00,Rain,Light Rain,220,2013-05-28 19:52:00
4:45 PM,73.4,66.2,78,29.87,4.0,SW,12.7,-,0.00,Rain-Thunderstorm,Thunderstorms and Rain,230,2013-05-28 20:45:00
4:52 PM,72.0,66.0,81,29.86,1.2,Variable,4.6,-,0.02,Rain-Thunderstorm,Thunderstorms and Rain,0,2013-05-28 20:52:00
4:59 PM,71.6,66.2,83,29.86,3.0,South,8.1,-,0.06,Rain-Thunderstorm,Light Thunderstorms and Rain,190,2013-05-28 20:59:00
5:32 PM,71.6,69.8,94,29.87,3.0,Calm,Calm,-,0.06,Thunderstorm,Overcast,0,2013-05-28 21:32:00
5:52 PM,72.0,68.0,87,29.86,3.0,SW,13.8,19.6,0.06,,Overcast,220,2013-05-28 21:52:00
6:52 PM,78.1,64.9,64,29.86,10.0,SW,11.5,21.9,N/A,,Scattered Clouds,230,2013-05-28 22:52:00
7:52 PM,78.1,64.0,62,29.87,10.0,SW,11.5,-,N/A,,Mostly Cloudy,220,2013-05-28 23:52:00
8:52 PM,75.9,64.0,67,29.85,10.0,SSW,9.2,-,N/A,,Mostly Cloudy,200,2013-05-29 00:52:00
9:52 PM,75.9,64.0,67,29.86,10.0,SSW,8.1,-,N/A,,Overcast,200,2013-05-29 01:52:00
10:52 PM,75.9,63.0,64,29.86,10.0,SSW,12.7,21.9,N/A,,Overcast,210,2013-05-29 02:52:00
11:52 PM,73.9,61.0,64,29.86,10.0,SSW,13.8,19.6,N/A,,Scattered Clouds,200,2013-05-29 03:52:00